Location: Caltech
(34.1382°N, 118.1253°W)
Time: 06:48:52
(UTC-07:00)

Iridium 14 - Visible Passes

Search period start: 24 May 2016 00:00
Search period end: 03 June 2016 00:00
Orbit: 776 x 779 km, 86.4° (Epoch: 23 May)

Date Brightness Start Highest point End Pass type
(mag) Time Alt. Az. Time Alt. Az. Time Alt. Az.
24 May 6.5 21:36:50 10° NNE 21:41:45 41° E 21:42:57 36° ESE visible
24 May 8.1 23:18:37 10° NW 23:22:04 18° W 23:23:26 16° W visible
25 May 7.4 21:04:05 10° NNE 21:08:03 22° E 21:09:48 18° ESE visible
25 May 7.3 22:44:07 10° NNW 22:48:47 34° W 22:50:18 29° WSW visible
26 May 8.0 20:32:57 10° ENE 20:34:13 11° ENE 20:35:29 10° E visible
26 May 6.2 22:10:13 10° N 22:15:24 68° W 22:17:10 41° SSW visible
27 May 6.0 21:36:43 10° N 21:41:53 62° E 21:44:04 34° SSE visible
27 May 8.6 23:20:08 10° WNW 23:21:57 12° W 23:23:47 10° W visible
28 May 6.9 21:03:38 10° NNE 21:08:16 32° E 21:10:58 20° SE visible
28 May 8.0 22:44:41 10° NNW 22:48:45 23° W 22:51:28 16° WSW visible
29 May 7.7 20:31:14 10° NE 20:34:31 17° ENE 20:37:47 10° ESE visible
29 May 6.9 22:10:28 10° NNW 22:15:25 45° W 22:18:23 22° SSW visible
30 May 6.0 21:36:44 10° N 21:41:59 88° W 21:45:20 23° S visible
31 May 6.3 21:03:24 10° N 21:08:26 47° E 21:12:18 16° SSE visible
31 May 8.5 22:45:38 10° NW 22:48:39 16° W 22:51:41 10° WSW visible
01 Jun 7.2 20:30:31 10° NNE 20:34:46 25° E 20:38:58 10° SE visible
01 Jun 7.7 22:10:54 10° NNW 22:15:24 30° W 22:19:47 10° SW visible
02 Jun 6.5 21:36:54 10° N 21:42:01 59° W 21:46:48 12° SSW visible
